When you browse on this site, cookies collect data to enhance your experience and personalize the content and advertising you see.
Visit our Privacy Policy to learn more. By continuing to use the site, you agree to this use of cookies and data.
  • In Netherlands
  • List of Countries
  • For 7 days
  • Water Temperature
  • Weather Map
  • Weather Widgets
  • user-avatar
    Login

    Hourly Weather Chester

    Today, 19 September, Thursday

    Time Temperature Precipitation Wind Pressure Humidity
    00:00 +11°C° 0 mm 1 mps 772 mmHg 84%
    01:00 +11°C° 0 mm 1 mps 772 mmHg 84%
    02:00 +11°C° 0 mm 1 mps 772 mmHg 84%
    03:00 +11°C° 0 mm 1 mps 771 mmHg 84%
    04:00 +10°C° 0 mm 0 mps 772 mmHg 84%
    05:00 +10°C° 0 mm 0 mps 772 mmHg 84%
    06:00 +10°C° 0 mm 0 mps 772 mmHg 84%
    07:00 +12°C° 0 mm 0 mps 772 mmHg 79%
    08:00 +13°C° 0 mm 0 mps 772 mmHg 74%
    09:00 +15°C° 0 mm 0 mps 772 mmHg 69%
    10:00 +17°C° 0 mm 0 mps 772 mmHg 65%
    11:00 +18°C° 0 mm 0 mps 772 mmHg 62%
    12:00 +19°C° 0 mm 0 mps 772 mmHg 59%
    13:00 +19°C° 0 mm 0 mps 772 mmHg 59%
    14:00 +21°C° 0 mm 1 mps 771 mmHg 59%
    15:00 +22°C° 0 mm 1 mps 771 mmHg 58%
    16:00 +20°C° 0 mm 1 mps 771 mmHg 65%
    17:00 +19°C° 0 mm 1 mps 771 mmHg 71%
    18:00 +16°C° 0 mm 1 mps 771 mmHg 77%
    19:00 +15°C° 0 mm 1 mps 771 mmHg 80%
    20:00 +14°C° 0 mm 0 mps 771 mmHg 82%
    21:00 +13°C° 0 mm 0 mps 771 mmHg 85%
    22:00 +13°C° 0 mm 0 mps 771 mmHg 85%
    23:00 +12°C° 0 mm 0 mps 771 mmHg 86%

    Tomorrow, 20 September, Friday

    Time Temperature Precipitation Wind Pressure Humidity
    00:00 +13°C° 0 mm 1 mps 771 mmHg 87%
    01:00 +13°C° 0 mm 1 mps 770 mmHg 87%
    02:00 +13°C° 0 mm 1 mps 770 mmHg 88%
    03:00 +13°C° 0 mm 2 mps 770 mmHg 88%
    04:00 +12°C° 0 mm 2 mps 769 mmHg 89%
    05:00 +12°C° 0 mm 2 mps 769 mmHg 89%
    06:00 +12°C° 0 mm 2 mps 768 mmHg 89%
    07:00 +13°C° 0 mm 2 mps 768 mmHg 84%
    08:00 +14°C° 0 mm 3 mps 768 mmHg 79%
    09:00 +16°C° 0 mm 3 mps 768 mmHg 74%
    10:00 +17°C° 0 mm 4 mps 768 mmHg 71%
    11:00 +19°C° 0 mm 4 mps 767 mmHg 67%
    12:00 +20°C° 0 mm 5 mps 766 mmHg 64%
    13:00 +20°C° 0 mm 5 mps 766 mmHg 63%
    14:00 +20°C° 0 mm 5 mps 765 mmHg 63%
    15:00 +21°C° 0 mm 5 mps 764 mmHg 62%
    16:00 +20°C° 0 mm 5 mps 764 mmHg 66%
    17:00 +17°C° 0 mm 5 mps 763 mmHg 69%
    18:00 +17°C° 0 mm 4 mps 763 mmHg 73%
    19:00 +16°C° 0 mm 5 mps 763 mmHg 72%
    20:00 +15°C° 0 mm 5 mps 763 mmHg 71%
    21:00 +14°C° 0 mm 6 mps 762 mmHg 71%
    22:00 +13°C° 0 mm 6 mps 762 mmHg 73%
    23:00 +13°C° 0 mm 6 mps 761 mmHg 76%

    Day after tomorrow, 21 September, Saturday

    Time Temperature Precipitation Wind Pressure Humidity
    00:00 +11°C° 0 mm 6 mps 761 mmHg 78%
    01:00 +11°C° 0 mm 6 mps 760 mmHg 79%
    02:00 +11°C° 0 mm 6 mps 760 mmHg 80%
    03:00 +12°C° 0 mm 5 mps 759 mmHg 82%
    04:00 +11°C° 0 mm 6 mps 759 mmHg 81%
    05:00 +11°C° 0 mm 6 mps 758 mmHg 80%
    06:00 +11°C° 0 mm 6 mps 758 mmHg 80%
    07:00 +13°C° 0 mm 6 mps 757 mmHg 75%
    08:00 +14°C° 0 mm 6 mps 757 mmHg 71%
    09:00 +15°C° 0 mm 7 mps 757 mmHg 67%
    10:00 +16°C° 0 mm 7 mps 756 mmHg 64%
    11:00 +17°C° 0 mm 7 mps 756 mmHg 61%
    12:00 +20°C° 0 mm 7 mps 755 mmHg 58%
    13:00 +20°C° 0 mm 6 mps 755 mmHg 59%
    14:00 +21°C° 0 mm 6 mps 754 mmHg 59%
    15:00 +22°C° 0 mm 6 mps 753 mmHg 60%
    16:00 +21°C° 0 mm 6 mps 753 mmHg 63%
    17:00 +20°C° 0 mm 6 mps 753 mmHg 66%
    18:00 +19°C° 0 mm 5 mps 753 mmHg 69%
    19:00 +19°C° 0 mm 5 mps 752 mmHg 70%
    20:00 +17°C° 0 mm 5 mps 752 mmHg 71%
    21:00 +17°C° 0 mm 5 mps 752 mmHg 73%
    22:00 +17°C° 0 mm 5 mps 752 mmHg 74%
    23:00 +17°C° 0 mm 5 mps 751 mmHg 76%

    22 September, Sunday

    Time Temperature Precipitation Wind Pressure Humidity
    00:00 +17°C° 0 mm 4 mps 751 mmHg 77%
    01:00 +17°C° 0 mm 4 mps 750 mmHg 80%
    02:00 +17°C° 0 mm 4 mps 750 mmHg 83%
    03:00 +15°C° 0 mm 4 mps 750 mmHg 87%
    04:00 +15°C° 0 mm 4 mps 749 mmHg 89%
    05:00 +15°C° 0 mm 4 mps 749 mmHg 90%
    06:00 +15°C° 0 mm 4 mps 749 mmHg 92%
    07:00 +17°C° 0.1 mm 4 mps 749 mmHg 90%
    08:00 +17°C° 0.1 mm 5 mps 749 mmHg 87%
    09:00 +19°C° 0.1 mm 5 mps 749 mmHg 85%
    10:00 +19°C° 0.8 mm 4 mps 749 mmHg 85%
    11:00 +19°C° 0.8 mm 4 mps 749 mmHg 85%
    12:00 +19°C° 0.8 mm 3 mps 749 mmHg 85%
    13:00 +19°C° 0.2 mm 3 mps 749 mmHg 82%
    14:00 +19°C° 0.2 mm 3 mps 749 mmHg 78%
    15:00 +20°C° 0.2 mm 2 mps 749 mmHg 75%
    16:00 +19°C° 0.2 mm 2 mps 749 mmHg 78%
    17:00 +18°C° 0.2 mm 2 mps 749 mmHg 81%
    18:00 +17°C° 0.2 mm 2 mps 749 mmHg 85%
    19:00 +16°C° 0 mm 2 mps 750 mmHg 86%
    20:00 +15°C° 0 mm 2 mps 750 mmHg 88%
    21:00 +14°C° 0 mm 2 mps 750 mmHg 89%
    22:00 +14°C° 0 mm 2 mps 751 mmHg 90%
    23:00 +14°C° 0 mm 2 mps 751 mmHg 91%

    23 September, Monday

    Time Temperature Precipitation Wind Pressure Humidity
    00:00 +13°C° 0 mm 2 mps 751 mmHg 92%
    01:00 +13°C° 0 mm 2 mps 751 mmHg 93%
    02:00 +12°C° 0 mm 2 mps 752 mmHg 93%
    03:00 +12°C° 0 mm 2 mps 752 mmHg 93%
    04:00 +12°C° 0 mm 2 mps 752 mmHg 93%
    05:00 +12°C° 0 mm 2 mps 753 mmHg 93%
    06:00 +12°C° 0 mm 2 mps 753 mmHg 93%
    07:00 +13°C° 0 mm 2 mps 753 mmHg 89%
    08:00 +14°C° 0 mm 2 mps 754 mmHg 85%
    09:00 +16°C° 0 mm 2 mps 754 mmHg 81%
    10:00 +17°C° 0 mm 2 mps 754 mmHg 75%
    11:00 +18°C° 0 mm 2 mps 754 mmHg 68%
    12:00 +19°C° 0 mm 2 mps 754 mmHg 62%
    13:00 +19°C° 0 mm 3 mps 754 mmHg 61%
    14:00 +19°C° 0 mm 3 mps 753 mmHg 61%
    15:00 +19°C° 0 mm 3 mps 753 mmHg 61%
    16:00 +18°C° 0 mm 4 mps 753 mmHg 66%
    17:00 +17°C° 0 mm 4 mps 753 mmHg 72%
    18:00 +15°C° 0 mm 4 mps 752 mmHg 77%
    19:00 +15°C° 0 mm 4 mps 753 mmHg 81%
    20:00 +15°C° 0 mm 4 mps 753 mmHg 85%
    21:00 +14°C° 0 mm 4 mps 753 mmHg 89%
    22:00 +14°C° 0.1 mm 4 mps 753 mmHg 91%
    23:00 +14°C° 0.1 mm 4 mps 753 mmHg 92%

    24 September, Tuesday

    Time Temperature Precipitation Wind Pressure Humidity
    00:00 +16°C° 0.1 mm 3 mps 752 mmHg 94%
    01:00 +14°C° 0 mm 3 mps 752 mmHg 94%
    02:00 +14°C° 0 mm 3 mps 752 mmHg 95%
    03:00 +14°C° 0 mm 3 mps 752 mmHg 96%
    04:00 +14°C° 0 mm 3 mps 752 mmHg 96%
    05:00 +14°C° 0 mm 3 mps 751 mmHg 96%
    06:00 +14°C° 0 mm 3 mps 751 mmHg 96%
    07:00 +15°C° 0 mm 4 mps 750 mmHg 93%
    08:00 +16°C° 0 mm 5 mps 749 mmHg 90%
    09:00 +17°C° 0 mm 6 mps 749 mmHg 88%
    10:00 +17°C° 0.6 mm 6 mps 748 mmHg 89%
    11:00 +16°C° 0.6 mm 6 mps 747 mmHg 90%
    12:00 +16°C° 0.6 mm 6 mps 746 mmHg 92%
    13:00 +16°C° 6.2 mm 6 mps 745 mmHg 91%
    14:00 +15°C° 6.2 mm 7 mps 745 mmHg 91%
    15:00 +15°C° 6.2 mm 7 mps 744 mmHg 91%
    16:00 +15°C° 0.3 mm 6 mps 745 mmHg 90%
    17:00 +15°C° 0.3 mm 5 mps 745 mmHg 89%
    18:00 +14°C° 0.3 mm 4 mps 745 mmHg 88%
    19:00 +14°C° 0 mm 4 mps 746 mmHg 88%
    20:00 +14°C° 0 mm 3 mps 746 mmHg 88%
    21:00 +13°C° 0 mm 3 mps 746 mmHg 89%
    22:00 +13°C° 0 mm 3 mps 746 mmHg 90%
    23:00 +12°C° 0 mm 3 mps 746 mmHg 92%
    Show more